Simultaneous Nadir Overpasses (SNOs) Predictions

Prediction of SNOs between AURA and NPP Satellite Orbit:

Table of predicted SNOs for the next 14.0 days since TLE Epoch: 5/5/2014
Index Date (AURA) Time (AURA) Lat,Lon (AURA) SZA (AURA ) Date (NPP) Time (NPP) Lat,Lon (NPP) SZA (NPP ) Distance(km) Time Diff (sec)
1 05/05/2014 23:35:53 76.76, 69.70 79.61 05/05/2014 23:34:40 76.75, 69.63 79.69 2.08 73
2 05/06/2014 00:25:03 -77.57,-119.54 101.38 05/06/2014 00:25:06 -77.58,-119.45 101.41 2.63 3
3 05/08/2014 15:52:08 77.20,-172.79 78.36 05/08/2014 15:51:28 77.21,-172.69 78.37 2.76 40
4 05/08/2014 16:41:24 -77.73, -3.00 102.30 05/08/2014 16:42:01 -77.73, -2.95 102.35 1.48 37
5 05/11/2014 08:08:31 77.28, -56.58 77.57 05/11/2014 08:08:26 77.27, -56.64 77.58 1.52 5
6 05/11/2014 08:57:47 -77.81, 113.24 103.10 05/11/2014 08:58:59 -77.80, 113.14 103.13 2.62 72
7 05/13/2014 23:35:39 -76.85,-109.92 102.58 05/13/2014 23:34:51 -76.85,-109.99 102.52 1.92 48
8 05/14/2014 00:24:51 77.47, 60.07 76.68 05/14/2014 00:25:21 77.46, 59.98 76.68 2.56 30
9 05/16/2014 15:51:55 -77.21, 7.29 103.62 05/16/2014 15:51:42 -77.21, 7.30 103.61 0.30 13
10 05/16/2014 16:41:08 77.77, 177.22 75.70 05/16/2014 16:42:13 77.76, 177.20 75.65 0.30 65
11 05/19/2014 07:18:58 76.80, -45.97 76.31 05/19/2014 07:18:04 76.80, -45.95 76.36 0.31 54




NCC Satellite Simultaneous Nadir Overpasses (SNOs) Prediction Service
